Location: Beaver Brook Station
(42.3793°N, 71.2203°W)
Time: 01:58:57
(UTC+00:00)

USA 308 - Pass Details

Date: 29 October 2020
Orbit: 571 x 578 km, 54.0° (Epoch: 30 November)

Event Time Altitude Azimuth Distance (km) Brightness Sun altitude
Rises 23:32:14 0° 308° (NW) 2,785 7.2 -21.0°
Reaches altitude 10° 23:34:30 10° 310° (NW) 1,883 6.2 -21.4°
Maximum altitude 23:38:47 83° 36° (NE) 581 2.7 -22.2°
Enters shadow 23:39:03 77° 97° (E) 590 2.7 -22.2°
